Theta_e
354 353 350 352 351 356 354 354 358 356 356 352 350 348 347 343 341 343 343 346 345 335
348 347 351 355 357 354 353 351 353 352 351 347 346 345 345 342 340 343 342 342 345 342
343 347 343 345 349 350 352 347 348 348 347 345 345 344 342 340 342 342 339 338 340 341
335 340 344 342 341 342 345 345 344 346 345 344 341 341 341 340 338 336 336 340 339 340
333 335 339 339 343 340 342 343 341 344 341 340 339 340 337 337 336 335 334 338 338 338
329 331 337 338 341 342 337 336 336 338 338 339 339 339 339 337 336 335 335 336 337 338
328 328 328 332 335 339 339 337 336 337 340 342 341 338 338 337 336 335 334 335 337 336
328 327 326 326 328 331 336 338 337 335 339 341 340 337 336 336 335 335 334 335 336 338
324 325 323 324 324 327 330 331 336 336 336 336 333 318 313 324 336 336 334 335 336 338
320 323 322 321 321 323 326 328 328 331 335 334 336 315 312 314 330 333 339 340 339 336
316 319 322 320 321 323 326 326 327 327 327 330 333 314 308 309 330 338 337 338 339 337
316 316 320 321 323 322 323 324 324 324 326 330 332 312 306 312 326 327 332 336 339 336
317 317 317 322 325 323 324 323 320 321 325 320 328 315 305 312 330 329 328 334 335 317
315 318 319 324 325 324 324 322 322 322 326 326 325 327 302 301 317 332 331 331 331 332
Wind_Speed
8 4 5 7 8 4 4 4 11 13 11 12 12 11 9 7 7 7 7 8 7 8
8 9 9 7 6 2 5 4 9 12 12 11 13 14 13 10 11 11 9 12 10 7
11 8 7 7 8 4 6 7 9 11 13 14 15 15 15 12 14 14 10 7 10 11
12 11 11 4 5 6 3 6 9 10 12 12 13 11 11 12 13 13 12 9 9 11
12 12 10 8 6 2 5 5 7 10 10 11 12 10 12 12 12 14 13 10 10 10
11 11 10 10 6 7 3 5 5 7 9 12 14 13 12 13 12 13 11 9 9 11
7 10 11 10 11 6 3 6 5 9 12 13 11 10 11 11 9 12 12 10 10 8
6 5 8 10 10 10 8 4 5 6 10 10 9 9 10 9 9 11 12 12 11 10
12 3 7 7 8 8 8 9 6 7 8 9 5 8 3 8 9 10 12 13 13 12
12 7 7 7 8 8 8 7 8 9 6 9 10 12 15 15 11 13 14 14 13 12
12 14 8 3 10 7 8 8 8 7 9 10 8 12 11 12 13 15 15 15 13 12
13 12 14 8 5 8 7 9 8 8 8 10 9 8 11 10 9 10 14 15 15 12
15 12 13 14 8 8 6 9 8 9 9 11 11 9 8 8 9 10 9 13 14 15
16 15 13 13 10 7 7 10 9 8 8 11 8 6 9 9 7 11 10 9 8 9
Wind_Direction
327 249 246 262 274 286 238 224 162 181 171 166 170 181 172 183 189 192 216 220 247 267
16 356 331 304 286 93 97 114 138 159 174 187 186 174 167 185 186 191 194 202 179 240
3 15 353 328 304 191 187 167 178 187 198 199 198 197 196 201 198 201 197 197 181 177
8 20 357 345 334 317 260 206 196 201 210 207 206 207 209 221 219 217 216 208 193 200
360 358 13 3 332 305 254 199 188 184 217 222 216 209 223 226 223 217 219 211 217 217
352 352 354 354 359 333 260 282 280 263 215 231 233 236 234 237 223 217 229 239 232 214
353 345 344 347 346 350 332 294 287 272 244 238 239 236 239 226 230 233 217 232 257 254
312 332 335 338 341 341 341 329 282 277 280 270 247 239 235 231 241 225 229 230 241 247
297 316 303 319 324 328 336 336 327 306 293 266 270 311 279 259 254 231 236 245 243 241
287 266 295 305 310 327 323 318 314 313 282 280 275 240 248 249 254 263 260 247 244 234
287 292 241 265 300 309 310 315 315 308 304 302 274 228 230 236 251 257 251 251 243 235
280 278 293 232 243 281 295 297 293 293 298 286 282 265 217 225 241 244 257 257 251 242
289 280 280 288 249 262 276 276 284 304 304 298 292 306 269 220 252 239 236 241 240 228
284 282 275 271 266 258 266 278 286 292 290 290 294 349 26 16 306 268 250 238 236 239